C/2022 E2 ( ATLAS )

Japanese version
Home page
Updated on May 27, 2025

---------------------------------------------------------------------

* Profile

Discovery Date March 7, 2022
Magnitude 18.7 mag
Discoverer Asteroid Terrestrial-Impact Last Alert System (ATLAS) search program

* Pictures

* Orbital Elements

Epoch 2025 May 5.0 TT = JDT 2460800.5
T 2024 Sept. 14.14008 TT                                Pike
q   3.6664134            (2000.0)            P               Q
z  -0.0001208      Peri.   41.74676     -0.03430680     +0.83149813
 +/-0.0000003      Node   125.39714     +0.63723066     -0.40919334
e   1.0004430      Incl.  137.14096     +0.76990917     +0.37572819
From 3972 observations 2022 Feb. 23-2025 Feb. 25, mean residual 0".7.

* Finding Charts

* Magnitudes Graph

        m1 = 3.0 + 5 log d + 12.0 log r(t + 100)

---------------------------------------------------------------------

The orbital elements are published on M.P.E.C. 2025-D254.
The charts are made with StellaNavigator Ver.10 (AstroArts).
The magnitudes graphs are made with Comet for Windows.

---------------------------------------------------------------------

Copyright(C) Seiichi Yoshida (comet@aerith.net). All rights reserved.